CDT,Max TemperatureF,Mean TemperatureF,Min TemperatureF,Max Dew PointF,MeanDew PointF,Min DewpointF,Max Humidity, Mean Humidity, Min Humidity, Max Sea Level PressureIn, Mean Sea Level PressureIn, Min Sea Level PressureIn, Max VisibilityMiles, Mean VisibilityMiles, Min VisibilityMiles, Max Wind SpeedMPH, Mean Wind SpeedMPH, Max Gust SpeedMPH,PrecipitationIn, CloudCover, Events, WindDirDegrees
2012-9-1,78,66,53,57,54,50,100,70,39,30.19,30.14,30.08,10,10,10,15,4,21,0.00,0,,59
2012-9-2,82,68,53,61,56,52,100,70,35,30.09,30.02,29.95,10,10,10,12,4,16,0.00,0,,77
2012-9-3,80,68,57,70,65,55,100,83,65,29.97,29.93,29.87,10,10,7,8,2,,0.00,2,,220
2012-9-4,86,75,62,72,67,55,100,83,48,29.91,29.86,29.76,10,6,0,20,2,36,0.22,5,Fog-Rain,120
2012-9-5,82,70,59,63,58,54,100,75,37,29.86,29.80,29.76,10,10,10,13,3,20,0.00,1,Rain,320
2012-9-6,78,66,53,59,51,43,100,63,28,29.95,29.90,29.84,10,10,5,13,3,17,0.00,1,Rain,268
2012-9-7,64,58,50,59,56,50,100,89,73,29.94,29.89,29.84,10,10,3,8,1,,0.28,6,Rain,316
2012-9-8,68,58,48,55,49,45,100,83,46,29.90,29.85,29.78,10,10,5,14,7,29,0.11,3,Rain,295
2012-9-9,71,60,48,54,48,43,100,73,35,30.14,30.06,29.91,10,10,5,10,5,20,0.01,2,,336
2012-9-10,77,60,42,52,48,41,100,72,34,30.18,30.10,30.00,10,10,2,15,3,28,0.00,0,,202
2012-9-11,86,68,50,57,53,48,94,62,31,30.03,29.97,29.89,10,10,10,17,7,23,0.00,0,,195
2012-9-12,78,66,53,59,50,32,94,59,25,30.22,30.06,29.96,10,10,10,13,8,21,0.15,3,Rain,266
2012-9-13,62,53,44,54,49,43,100,81,55,30.31,30.28,30.23,10,10,7,13,5,10,0.13,4,Rain,279
2012-9-14,71,56,42,48,42,34,100,68,25,30.31,30.29,30.26,10,9,0,10,2,18,0.00,1,Fog,316
2012-9-15,77,59,41,52,46,41,100,66,29,30.32,30.20,30.06,10,10,7,10,3,,0.00,0,,211
2012-9-16,77,62,48,50,46,43,87,59,29,30.05,29.97,29.89,10,10,10,18,5,24,0.00,0,,216
2012-9-17,64,55,46,54,50,45,100,83,59,29.89,29.85,29.82,10,10,7,13,3,,0.16,6,Rain,325
2012-9-18,57,45,32,45,35,23,100,68,30,30.00,29.92,29.87,10,10,10,15,8,22,0.00,2,,323
2012-9-19,69,50,32,54,39,30,100,73,35,29.99,29.82,29.61,10,10,7,20,4,28,0.06,4,Rain,206
2012-9-20,62,50,39,45,42,37,100,75,45,29.88,29.81,29.76,10,10,10,17,6,24,0.00,3,Rain,268
2012-9-21,59,49,39,45,42,37,100,82,51,29.86,29.81,29.76,10,10,1,12,3,21,0.03,5,Rain,279
2012-9-22,59,46,33,41,35,28,100,69,36,30.14,29.95,29.74,10,9,0,18,6,26,0.00,6,Fog-Rain,318
2012-9-23,57,45,33,36,33,30,100,66,36,30.21,30.17,30.14,10,10,10,16,7,23,0.00,2,,281
2012-9-24,69,50,32,41,34,30,93,55,28,30.15,29.91,29.71,10,10,10,23,8,30,0.00,1,,240
2012-9-25,66,54,42,46,44,41,93,70,46,29.95,29.84,29.78,10,10,4,10,4,,0.00,2,,54
2012-9-26,60,48,37,43,36,32,93,64,34,30.22,30.08,29.95,10,10,10,12,3,16,0.00,2,,20
2012-9-27,62,48,33,43,37,32,100,75,37,30.32,30.25,30.20,10,10,7,7,1,,0.00,1,,25
2012-9-28,71,52,32,43,36,32,100,66,25,30.22,30.16,30.09,10,10,2,7,1,,0.00,0,,296
2012-9-29,73,57,41,45,40,36,100,64,25,30.10,30.06,30.00,10,10,10,10,2,,0.00,0,,63
2012-9-30,64,52,41,46,43,39,100,77,45,30.06,30.01,29.96,10,10,7,7,2,,0.00,1,,60